Location: Cheyres
(46.8153°N, 6.7877°E)
Time: 20:28:38
(UTC+00:00)

BlueWalker 3 - Pass Details

Date: 29 February 2024
Orbit: 485 x 495 km, 53.2° (Epoch: 21 April)

Event Time Altitude Azimuth Distance (km) Brightness Sun altitude
Rises 18:14:38 0° 297° (WNW) 2,565 6.8 -10.5°
Reaches altitude 10° 18:16:55 10° 305° (NW) 1,680 5.5 -10.9°
Maximum altitude 18:20:30 38° 15° (NNE) 755 2.7 -11.5°
Enters shadow 18:22:52 18° 76° (ENE) 1,251 3.3 -11.9°
